Home   Weather   Recife   Past weeks

Flag for Brazil Past Weather in Recife, Pernambuco, Brazil — Yesterday and Last 2 Weeks

Now
84 °F

Scattered clouds.


Feels Like: 90 °F
Forecast: 76 / 83 °F
Wind: 14 mph from Southeast

Location: Recife Aeroporto

Current Time: Aug 30, 2016 at 2:24:42 PM

Latest Report: Aug 30, 2016 at 2:00 PM


Visibility: N/A

Pressure: 29.98 "Hg

Humidity: 66%

Dew Point: 72 °F

Location of RecifeLocation

Past Weather in Recife — Graph

°F

Recife Temperature Yesterday

Maximum temperature yesterday: 84 °F (at 10:00 AM)
Minimum temperature yesterday: 75 °F (at 4:00 AM)
Average temperature yesterday: 80 °F

High & Low Weather Summary for the Past Weeks

 TemperatureHumidityPressure
High86 °F (Aug 30, 12:00 PM)94% (Aug 16, 6:00 AM)30.09 "Hg (Aug 16, 6:00 AM)
Low73 °F (Aug 22, 4:00 AM)62% (Aug 24, 1:00 PM)29.92 "Hg (Aug 15, 3:00 PM)
Average80 °F75%30.00 "Hg
* Reported Aug 15 1:00 PM — Aug 30 1:00 PM, Recife, Weather by CustomWeather, © 2016

Note: Actual official high and low records may vary slightly from our data, if they occured in-between our weather recording intervals... More about our weather records

Advertising

Recife Weather History for the Previous 24 Hours

Scroll right to see more
 ConditionsComfort  
Time TempWeatherWind HumidityBarometerVisibility
1:00 PM
Tue, Aug 30
86 °FScattered clouds.14 mph66%29.98 "HgN/A
12:00 PM86 °FScattered clouds.15 mph66%30.01 "HgN/A
11:00 AM84 °FScattered clouds.15 mph70%30.01 "HgN/A
10:00 AM81 °FScattered showers. Broken clouds.14 mph84%30.04 "HgN/A
9:00 AM81 °FScattered clouds.15 mph84%30.04 "HgN/A
8:00 AM82 °FScattered clouds.14 mph74%30.04 "HgN/A
7:00 AM77 °FPartly sunny.6 mph89%30.01 "HgN/A
6:00 AM77 °FPartly sunny.6 mph83%30.01 "HgN/A
5:00 AM77 °FPassing clouds.13 mph83%29.98 "HgN/A
4:00 AM79 °FPassing clouds.13 mph79%29.98 "HgN/A
3:00 AM79 °FPassing clouds.13 mph84%29.98 "HgN/A
2:00 AM79 °FPassing clouds.12 mph79%30.01 "HgN/A
1:00 AM79 °FPassing clouds.13 mph79%30.01 "HgN/A
12:00 AM79 °FPartly cloudy.13 mph84%30.04 "HgN/A
11:00 PM
Mon, Aug 29
79 °FPassing clouds.14 mph79%30.04 "HgN/A
10:00 PM79 °FPassing clouds.13 mph79%30.04 "HgN/A
9:00 PM79 °FPassing clouds.13 mph79%30.04 "HgN/A
8:00 PM79 °FPassing clouds.13 mph79%30.04 "HgN/A
7:00 PM79 °FPassing clouds.13 mph79%30.01 "HgN/A
6:00 PM79 °FPassing clouds.12 mph79%30.01 "HgN/A
5:00 PM81 °FPassing clouds.12 mph74%29.98 "HgN/A
4:00 PM81 °FScattered clouds.10 mph70%29.98 "HgN/A
3:00 PM82 °FPassing clouds.10 mph70%29.98 "HgN/A
2:00 PM84 °FScattered clouds.12 mph66%29.98 "HgN/A
Weather by CustomWeather, © 2016

See weather overviewHow to use our weather pages